LOCATION_NAME,SAMPLE COLLECTION TIME,DOSE EQUIVALENT RATE (nSv/h),GAMMA COUNT RATE R02 (CPM),GAMMA COUNT RATE R03 (CPM),GAMMA COUNT RATE R04 (CPM),GAMMA COUNT RATE R05 (CPM),GAMMA COUNT RATE R06 (CPM),GAMMA COUNT RATE R07 (CPM),GAMMA COUNT RATE R08 (CPM),GAMMA COUNT RATE R09 (CPM),STATUS
WI: LA CROSSE,07/11/2013 13:58:00,,2203.00,1324.00,395.00,189.00,125.00,154.00,76.00,36.00,APPROVED
WI: LA CROSSE,07/11/2013 14:58:00,,2153.00,1273.00,385.00,185.00,121.00,149.00,73.00,36.00,APPROVED
WI: LA CROSSE,07/11/2013 15:58:00,,2028.00,1217.00,386.00,177.00,121.00,153.00,75.00,35.00,APPROVED
WI: LA CROSSE,07/11/2013 16:58:00,,1911.00,1134.00,361.00,170.00,118.00,143.00,71.00,36.00,APPROVED
WI: LA CROSSE,07/11/2013 17:59:00,,1849.00,1086.00,355.00,165.00,113.00,138.00,70.00,35.00,APPROVED
WI: LA CROSSE,07/11/2013 18:59:00,,1827.00,1069.00,345.00,162.00,114.00,141.00,69.00,36.00,APPROVED
WI: LA CROSSE,07/11/2013 19:59:00,,1802.00,1052.00,345.00,165.00,115.00,137.00,69.00,34.00,APPROVED
WI: LA CROSSE,07/11/2013 20:59:00,,1775.00,1035.00,341.00,159.00,111.00,138.00,69.00,33.00,APPROVED
WI: LA CROSSE,07/11/2013 21:59:00,,1795.00,1046.00,345.00,164.00,113.00,140.00,69.00,35.00,APPROVED
WI: LA CROSSE,07/11/2013 23:00:00,,1808.00,1045.00,345.00,163.00,115.00,142.00,68.00,34.00,APPROVED
WI: LA CROSSE,07/12/2013 00:00:00,,1816.00,1053.00,350.00,162.00,115.00,140.00,67.00,33.00,APPROVED
WI: LA CROSSE,07/12/2013 01:00:00,,1871.00,1083.00,345.00,162.00,113.00,146.00,62.00,33.00,APPROVED
WI: LA CROSSE,07/12/2013 02:00:00,,1935.00,1124.00,355.00,166.00,112.00,150.00,57.00,34.00,APPROVED
WI: LA CROSSE,07/12/2013 03:00:00,,2023.00,1170.00,362.00,171.00,114.00,152.00,58.00,34.00,APPROVED
WI: LA CROSSE,07/12/2013 04:01:00,,2102.00,1227.00,368.00,177.00,119.00,151.00,63.00,36.00,APPROVED
WI: LA CROSSE,07/12/2013 05:01:00,,2147.00,1259.00,376.00,177.00,119.00,150.00,66.00,35.00,APPROVED
WI: LA CROSSE,07/12/2013 06:01:00,,2191.00,1288.00,384.00,178.00,119.00,153.00,69.00,35.00,APPROVED
WI: LA CROSSE,07/12/2013 07:01:00,,2218.00,1308.00,388.00,182.00,123.00,153.00,70.00,36.00,APPROVED
WI: LA CROSSE,07/12/2013 08:01:00,,2255.00,1342.00,401.00,188.00,121.00,158.00,72.00,35.00,APPROVED
WI: LA CROSSE,07/12/2013 09:01:00,,2266.00,1356.00,398.00,192.00,124.00,155.00,70.00,36.00,APPROVED
WI: LA CROSSE,07/12/2013 10:02:00,,2312.00,1378.00,402.00,189.00,126.00,159.00,72.00,36.00,APPROVED
WI: LA CROSSE,07/12/2013 11:02:00,,2305.00,1379.00,401.00,191.00,124.00,162.00,73.00,35.00,APPROVED
WI: LA CROSSE,07/12/2013 12:02:00,,2293.00,1366.00,408.00,190.00,124.00,159.00,71.00,36.00,APPROVED
WI: LA CROSSE,07/12/2013 13:02:00,,2242.00,1344.00,403.00,188.00,123.00,159.00,73.00,36.00,APPROVED
WI: LA CROSSE,07/12/2013 14:02:00,,2206.00,1312.00,393.00,185.00,123.00,158.00,70.00,37.00,APPROVED
WI: LA CROSSE,07/12/2013 15:03:00,,2119.00,1268.00,384.00,180.00,122.00,153.00,73.00,35.00,APPROVED
WI: LA CROSSE,07/12/2013 16:03:00,,2034.00,1214.00,374.00,177.00,117.00,149.00,68.00,35.00,APPROVED
WI: LA CROSSE,07/12/2013 17:03:00,,1959.00,1155.00,368.00,172.00,118.00,147.00,75.00,36.00,APPROVED
WI: LA CROSSE,07/12/2013 18:03:00,,1940.00,1139.00,366.00,171.00,116.00,147.00,73.00,34.00,APPROVED
WI: LA CROSSE,07/12/2013 19:03:00,,1931.00,1142.00,369.00,170.00,117.00,146.00,73.00,36.00,APPROVED
WI: LA CROSSE,07/12/2013 20:04:00,,1909.00,1127.00,365.00,171.00,119.00,147.00,69.00,35.00,APPROVED
WI: LA CROSSE,07/12/2013 21:04:00,,1897.00,1117.00,356.00,169.00,117.00,146.00,66.00,35.00,APPROVED
WI: LA CROSSE,07/12/2013 22:04:00,,1877.00,1098.00,356.00,168.00,118.00,147.00,66.00,35.00,APPROVED
WI: LA CROSSE,07/12/2013 23:04:00,,1893.00,1108.00,356.00,169.00,115.00,148.00,65.00,35.00,APPROVED
WI: LA CROSSE,07/13/2013 00:04:00,,1917.00,1118.00,364.00,170.00,118.00,146.00,66.00,34.00,APPROVED
WI: LA CROSSE,07/13/2013 01:05:00,,1972.00,1162.00,368.00,171.00,118.00,152.00,66.00,35.00,APPROVED
WI: LA CROSSE,07/13/2013 02:05:00,,2058.00,1213.00,372.00,177.00,118.00,153.00,65.00,35.00,APPROVED
WI: LA CROSSE,07/13/2013 03:05:00,,2145.00,1256.00,378.00,175.00,119.00,151.00,64.00,35.00,APPROVED
WI: LA CROSSE,07/13/2013 04:05:00,,2179.00,1271.00,381.00,174.00,118.00,151.00,64.00,36.00,APPROVED
WI: LA CROSSE,07/13/2013 05:05:00,,2205.00,1288.00,390.00,180.00,122.00,156.00,63.00,35.00,APPROVED
WI: LA CROSSE,07/13/2013 06:06:00,,2232.00,1307.00,388.00,180.00,120.00,157.00,64.00,37.00,APPROVED
WI: LA CROSSE,07/13/2013 07:06:00,,2250.00,1318.00,388.00,183.00,124.00,158.00,66.00,35.00,APPROVED
WI: LA CROSSE,07/13/2013 08:06:00,,2291.00,1349.00,394.00,185.00,120.00,158.00,66.00,36.00,APPROVED
WI: LA CROSSE,07/13/2013 09:06:00,,2315.00,1365.00,398.00,189.00,123.00,157.00,69.00,35.00,APPROVED
WI: LA CROSSE,07/13/2013 10:06:00,,2323.00,1364.00,397.00,190.00,123.00,158.00,71.00,36.00,APPROVED
WI: LA CROSSE,07/13/2013 11:07:00,,2325.00,1374.00,403.00,188.00,124.00,160.00,72.00,35.00,APPROVED
WI: LA CROSSE,07/13/2013 12:07:00,,2312.00,1378.00,399.00,189.00,125.00,160.00,69.00,37.00,APPROVED
WI: LA CROSSE,07/13/2013 13:07:00,,2317.00,1373.00,407.00,187.00,124.00,159.00,69.00,36.00,APPROVED
WI: LA CROSSE,07/13/2013 14:07:00,,2398.00,1444.00,423.00,196.00,130.00,169.00,72.00,37.00,APPROVED
WI: LA CROSSE,07/13/2013 16:08:00,,2528.00,1551.00,468.00,219.00,140.00,184.00,80.00,38.00,APPROVED
WI: LA CROSSE,07/13/2013 17:08:00,,2339.00,1414.00,426.00,197.00,131.00,169.00,77.00,37.00,APPROVED
WI: LA CROSSE,07/13/2013 18:08:00,,2179.00,1308.00,399.00,186.00,124.00,159.00,73.00,37.00,APPROVED
WI: LA CROSSE,07/13/2013 19:08:00,,2091.00,1242.00,383.00,182.00,124.00,152.00,72.00,37.00,APPROVED
WI: LA CROSSE,07/13/2013 20:08:00,,2013.00,1194.00,376.00,177.00,120.00,150.00,71.00,37.00,APPROVED
WI: LA CROSSE,07/13/2013 21:09:00,,1951.00,1153.00,366.00,174.00,120.00,149.00,71.00,35.00,APPROVED
WI: LA CROSSE,07/13/2013 22:09:00,,1938.00,1143.00,367.00,173.00,117.00,149.00,69.00,36.00,APPROVED
WI: LA CROSSE,07/13/2013 23:09:00,,1961.00,1158.00,369.00,170.00,118.00,145.00,70.00,35.00,APPROVED
WI: LA CROSSE,07/14/2013 00:09:00,,2002.00,1178.00,370.00,172.00,119.00,146.00,70.00,35.00,APPROVED
WI: LA CROSSE,07/14/2013 01:09:00,,2026.00,1195.00,372.00,174.00,119.00,148.00,68.00,35.00,APPROVED
WI: LA CROSSE,07/14/2013 02:10:00,,2083.00,1242.00,387.00,178.00,120.00,150.00,72.00,35.00,APPROVED
WI: LA CROSSE,07/14/2013 03:10:00,,2141.00,1272.00,389.00,179.00,123.00,150.00,73.00,36.00,APPROVED
WI: LA CROSSE,07/14/2013 04:10:00,,2170.00,1289.00,387.00,183.00,120.00,153.00,74.00,36.00,APPROVED
WI: LA CROSSE,07/14/2013 05:10:00,,2203.00,1310.00,389.00,184.00,122.00,149.00,73.00,36.00,APPROVED
WI: LA CROSSE,07/14/2013 06:10:00,,2224.00,1305.00,393.00,186.00,123.00,151.00,74.00,35.00,APPROVED
WI: LA CROSSE,07/14/2013 07:11:00,,2247.00,1341.00,391.00,185.00,123.00,153.00,72.00,35.00,APPROVED
WI: LA CROSSE,07/14/2013 08:11:00,,2289.00,1349.00,398.00,190.00,125.00,156.00,73.00,35.00,APPROVED
WI: LA CROSSE,07/14/2013 09:11:00,,2317.00,1359.00,401.00,188.00,127.00,155.00,72.00,36.00,APPROVED
WI: LA CROSSE,07/14/2013 10:11:00,,2317.00,1365.00,395.00,189.00,126.00,155.00,71.00,36.00,APPROVED
WI: LA CROSSE,07/14/2013 11:11:00,,2324.00,1378.00,400.00,190.00,126.00,152.00,73.00,36.00,APPROVED
WI: LA CROSSE,07/14/2013 12:12:00,,2298.00,1373.00,404.00,190.00,124.00,159.00,72.00,37.00,APPROVED
WI: LA CROSSE,07/14/2013 13:12:00,,2250.00,1347.00,402.00,188.00,128.00,155.00,75.00,36.00,APPROVED
WI: LA CROSSE,07/14/2013 14:12:00,,2224.00,1321.00,397.00,192.00,126.00,154.00,77.00,35.00,APPROVED
WI: LA CROSSE,07/14/2013 15:12:00,,2117.00,1269.00,386.00,184.00,125.00,149.00,83.00,34.00,APPROVED
WI: LA CROSSE,07/14/2013 16:12:00,,1996.00,1200.00,383.00,180.00,122.00,145.00,83.00,35.00,APPROVED
WI: LA CROSSE,07/14/2013 17:13:00,,1952.00,1162.00,374.00,180.00,121.00,144.00,83.00,35.00,APPROVED
WI: LA CROSSE,07/14/2013 18:13:00,,1932.00,1150.00,371.00,174.00,121.00,145.00,84.00,35.00,APPROVED
WI: LA CROSSE,07/14/2013 19:13:00,,1898.00,1134.00,368.00,172.00,118.00,145.00,80.00,33.00,APPROVED
WI: LA CROSSE,07/14/2013 20:13:00,,1878.00,1107.00,366.00,172.00,118.00,144.00,80.00,35.00,APPROVED
WI: LA CROSSE,07/14/2013 21:13:00,,1872.00,1106.00,362.00,173.00,119.00,143.00,78.00,33.00,APPROVED
WI: LA CROSSE,07/14/2013 22:14:00,,1840.00,1071.00,361.00,170.00,119.00,145.00,76.00,33.00,APPROVED
WI: LA CROSSE,07/14/2013 23:14:00,,1837.00,1074.00,361.00,168.00,119.00,143.00,73.00,33.00,APPROVED
WI: LA CROSSE,07/15/2013 00:14:00,,1851.00,1082.00,360.00,166.00,116.00,145.00,72.00,34.00,APPROVED
WI: LA CROSSE,07/15/2013 01:14:00,,1891.00,1120.00,363.00,170.00,116.00,145.00,72.00,36.00,APPROVED
WI: LA CROSSE,07/15/2013 02:14:00,,1985.00,1186.00,374.00,177.00,119.00,150.00,72.00,33.00,APPROVED
WI: LA CROSSE,07/15/2013 03:15:00,,2075.00,1227.00,381.00,180.00,123.00,147.00,72.00,36.00,APPROVED
WI: LA CROSSE,07/15/2013 04:15:00,,2101.00,1249.00,386.00,182.00,122.00,149.00,74.00,33.00,APPROVED
WI: LA CROSSE,07/15/2013 05:15:00,,2112.00,1257.00,383.00,182.00,122.00,149.00,76.00,34.00,APPROVED
WI: LA CROSSE,07/15/2013 06:15:00,,2137.00,1278.00,388.00,186.00,123.00,150.00,78.00,36.00,APPROVED
WI: LA CROSSE,07/15/2013 07:15:00,,2179.00,1303.00,397.00,190.00,129.00,149.00,81.00,36.00,APPROVED
WI: LA CROSSE,07/15/2013 08:16:00,,2203.00,1318.00,399.00,192.00,126.00,153.00,80.00,35.00,APPROVED
WI: LA CROSSE,07/15/2013 09:16:00,,2206.00,1328.00,402.00,193.00,125.00,152.00,84.00,35.00,APPROVED
WI: LA CROSSE,07/15/2013 10:16:00,,2238.00,1354.00,407.00,198.00,127.00,154.00,83.00,35.00,APPROVED
WI: LA CROSSE,07/15/2013 11:16:00,,2248.00,1364.00,408.00,198.00,129.00,157.00,85.00,36.00,APPROVED
WI: LA CROSSE,07/15/2013 12:16:00,,2224.00,1358.00,409.00,195.00,127.00,156.00,85.00,36.00,APPROVED
WI: LA CROSSE,07/15/2013 13:17:00,,2169.00,1326.00,407.00,197.00,128.00,154.00,89.00,36.00,APPROVED
WI: LA CROSSE,07/15/2013 14:17:00,,2161.00,1340.00,413.00,199.00,129.00,156.00,88.00,37.00,APPROVED
WI: LA CROSSE,07/15/2013 15:17:00,,2116.00,1316.00,419.00,200.00,132.00,160.00,92.00,36.00,APPROVED
WI: LA CROSSE,07/15/2013 16:17:00,,2046.00,1273.00,410.00,197.00,128.00,152.00,94.00,37.00,APPROVED
WI: LA CROSSE,07/15/2013 17:17:00,,1986.00,1209.00,398.00,188.00,126.00,152.00,91.00,36.00,APPROVED
WI: LA CROSSE,07/15/2013 18:18:00,,1947.00,1190.00,387.00,184.00,124.00,149.00,90.00,36.00,APPROVED
WI: LA CROSSE,07/15/2013 19:18:00,,1888.00,1131.00,375.00,181.00,122.00,144.00,87.00,35.00,APPROVED
WI: LA CROSSE,07/15/2013 20:18:00,,1853.00,1105.00,368.00,173.00,118.00,141.00,84.00,35.00,APPROVED
WI: LA CROSSE,07/15/2013 21:18:00,,1849.00,1095.00,369.00,175.00,121.00,144.00,85.00,34.00,APPROVED
WI: LA CROSSE,07/15/2013 22:18:00,,1939.00,1164.00,378.00,176.00,123.00,144.00,84.00,35.00,APPROVED
WI: LA CROSSE,07/15/2013 23:19:00,,2148.00,1293.00,393.00,189.00,125.00,147.00,84.00,36.00,APPROVED
WI: LA CROSSE,07/16/2013 00:19:00,,2257.00,1361.00,401.00,196.00,125.00,150.00,87.00,34.00,APPROVED
WI: LA CROSSE,07/16/2013 01:19:00,,2304.00,1394.00,407.00,198.00,129.00,147.00,87.00,36.00,APPROVED
WI: LA CROSSE,07/16/2013 02:19:00,,2342.00,1403.00,402.00,202.00,127.00,150.00,86.00,35.00,APPROVED
WI: LA CROSSE,07/16/2013 03:19:00,,2155.00,1315.00,400.00,191.00,126.00,151.00,87.00,37.00,APPROVED
WI: LA CROSSE,07/16/2013 04:20:00,,2121.00,1286.00,396.00,188.00,126.00,149.00,89.00,36.00,APPROVED
WI: LA CROSSE,07/16/2013 05:20:00,,2101.00,1284.00,400.00,190.00,127.00,147.00,87.00,36.00,APPROVED
WI: LA CROSSE,07/16/2013 06:20:00,,2124.00,1297.00,396.00,193.00,127.00,151.00,88.00,36.00,APPROVED
WI: LA CROSSE,07/16/2013 07:20:00,,2148.00,1303.00,402.00,192.00,127.00,148.00,89.00,37.00,APPROVED
WI: LA CROSSE,07/16/2013 08:20:00,,2160.00,1319.00,404.00,193.00,130.00,151.00,89.00,36.00,APPROVED
WI: LA CROSSE,07/16/2013 09:21:00,,2204.00,1349.00,410.00,197.00,126.00,154.00,89.00,36.00,APPROVED
WI: LA CROSSE,07/16/2013 10:21:00,,2234.00,1375.00,417.00,208.00,130.00,155.00,94.00,37.00,APPROVED
WI: LA CROSSE,07/16/2013 11:21:00,,2265.00,1402.00,419.00,209.00,132.00,156.00,93.00,37.00,APPROVED
WI: LA CROSSE,07/16/2013 12:21:00,,2269.00,1403.00,422.00,211.00,136.00,157.00,95.00,36.00,APPROVED
WI: LA CROSSE,07/16/2013 13:21:00,,2235.00,1393.00,422.00,211.00,133.00,158.00,96.00,38.00,APPROVED
WI: LA CROSSE,07/16/2013 14:22:00,,2203.00,1369.00,420.00,211.00,135.00,163.00,98.00,37.00,APPROVED
WI: LA CROSSE,07/16/2013 15:22:00,,2114.00,1327.00,417.00,201.00,134.00,158.00,99.00,37.00,APPROVED
WI: LA CROSSE,07/16/2013 16:22:00,,1985.00,1218.00,393.00,190.00,128.00,149.00,93.00,37.00,APPROVED
WI: LA CROSSE,07/16/2013 17:22:00,,1897.00,1158.00,382.00,181.00,122.00,146.00,92.00,35.00,APPROVED
WI: LA CROSSE,07/16/2013 18:22:00,,1863.00,1112.00,365.00,177.00,119.00,139.00,90.00,35.00,APPROVED
WI: LA CROSSE,07/16/2013 19:23:00,,1833.00,1096.00,367.00,172.00,119.00,136.00,85.00,36.00,APPROVED
WI: LA CROSSE,07/16/2013 20:23:00,,1845.00,1091.00,362.00,169.00,117.00,138.00,84.00,34.00,APPROVED
WI: LA CROSSE,07/16/2013 21:23:00,,1957.00,1181.00,387.00,181.00,121.00,147.00,90.00,35.00,APPROVED
WI: LA CROSSE,07/16/2013 22:23:00,,1874.00,1119.00,377.00,175.00,120.00,141.00,89.00,34.00,APPROVED
WI: LA CROSSE,07/16/2013 23:23:00,,1849.00,1099.00,366.00,170.00,122.00,141.00,87.00,34.00,APPROVED
WI: LA CROSSE,07/17/2013 00:24:00,,1856.00,1095.00,364.00,172.00,118.00,140.00,87.00,34.00,APPROVED
WI: LA CROSSE,07/17/2013 01:24:00,,1905.00,1125.00,365.00,173.00,122.00,143.00,84.00,36.00,APPROVED
WI: LA CROSSE,07/17/2013 02:24:00,,1969.00,1174.00,373.00,178.00,118.00,140.00,82.00,36.00,APPROVED
WI: LA CROSSE,07/17/2013 03:24:00,,2026.00,1222.00,382.00,182.00,123.00,142.00,86.00,36.00,APPROVED
WI: LA CROSSE,07/17/2013 04:24:00,,2071.00,1247.00,389.00,186.00,124.00,143.00,88.00,35.00,APPROVED
WI: LA CROSSE,07/17/2013 05:25:00,,2103.00,1272.00,391.00,186.00,125.00,149.00,89.00,37.00,APPROVED
WI: LA CROSSE,07/17/2013 06:25:00,,2133.00,1290.00,394.00,195.00,126.00,149.00,90.00,35.00,APPROVED
WI: LA CROSSE,07/17/2013 07:25:00,,2145.00,1313.00,400.00,193.00,125.00,149.00,89.00,36.00,APPROVED
WI: LA CROSSE,07/17/2013 08:25:00,,2173.00,1331.00,406.00,195.00,126.00,148.00,88.00,38.00,APPROVED
WI: LA CROSSE,07/17/2013 09:25:00,,2200.00,1349.00,407.00,200.00,128.00,155.00,91.00,37.00,APPROVED
WI: LA CROSSE,07/17/2013 10:26:00,,2212.00,1372.00,411.00,201.00,130.00,155.00,91.00,37.00,APPROVED
WI: LA CROSSE,07/17/2013 11:26:00,,2259.00,1397.00,419.00,206.00,134.00,158.00,91.00,39.00,APPROVED
WI: LA CROSSE,07/17/2013 12:26:00,,2231.00,1393.00,425.00,208.00,133.00,160.00,95.00,38.00,APPROVED
WI: LA CROSSE,07/17/2013 13:26:00,,2212.00,1394.00,424.00,205.00,131.00,160.00,97.00,38.00,APPROVED
WI: LA CROSSE,07/17/2013 14:26:00,,2187.00,1371.00,421.00,208.00,131.00,157.00,96.00,37.00,APPROVED
WI: LA CROSSE,07/17/2013 15:27:00,,2103.00,1319.00,417.00,205.00,132.00,159.00,99.00,39.00,APPROVED
WI: LA CROSSE,07/17/2013 16:27:00,,2002.00,1246.00,409.00,195.00,129.00,155.00,95.00,38.00,APPROVED
WI: LA CROSSE,07/17/2013 17:27:00,,1968.00,1201.00,401.00,188.00,127.00,151.00,94.00,37.00,APPROVED
WI: LA CROSSE,07/17/2013 18:27:00,,1957.00,1193.00,388.00,186.00,125.00,148.00,90.00,36.00,APPROVED
WI: LA CROSSE,07/17/2013 19:27:00,,1911.00,1146.00,380.00,182.00,125.00,146.00,89.00,36.00,APPROVED
WI: LA CROSSE,07/17/2013 20:28:00,,1924.00,1156.00,379.00,179.00,122.00,146.00,86.00,36.00,APPROVED
WI: LA CROSSE,07/17/2013 21:28:00,,2060.00,1252.00,385.00,183.00,125.00,147.00,85.00,36.00,APPROVED
WI: LA CROSSE,07/17/2013 22:28:00,,2094.00,1237.00,383.00,184.00,123.00,143.00,83.00,34.00,APPROVED
WI: LA CROSSE,07/17/2013 23:28:00,,2078.00,1248.00,383.00,184.00,120.00,144.00,82.00,36.00,APPROVED
WI: LA CROSSE,07/18/2013 00:28:00,,2117.00,1267.00,391.00,186.00,124.00,146.00,82.00,36.00,APPROVED
WI: LA CROSSE,07/18/2013 01:29:00,,2226.00,1323.00,395.00,187.00,127.00,148.00,84.00,35.00,APPROVED
WI: LA CROSSE,07/18/2013 02:29:00,,2343.00,1397.00,409.00,196.00,127.00,152.00,83.00,37.00,APPROVED
WI: LA CROSSE,07/18/2013 03:29:00,,2416.00,1442.00,412.00,199.00,129.00,154.00,85.00,38.00,APPROVED
WI: LA CROSSE,07/18/2013 04:29:00,,2353.00,1420.00,409.00,203.00,131.00,152.00,89.00,36.00,APPROVED
WI: LA CROSSE,07/18/2013 18:25:00,,1995.00,1175.00,370.00,181.00,121.00,140.00,85.00,36.00,APPROVED
WI: LA CROSSE,07/18/2013 19:25:00,,1942.00,1149.00,375.00,178.00,122.00,143.00,85.00,35.00,APPROVED
WI: LA CROSSE,07/18/2013 20:26:00,,1902.00,1128.00,377.00,177.00,121.00,144.00,84.00,34.00,APPROVED
WI: LA CROSSE,07/18/2013 21:26:00,,1873.00,1101.00,365.00,175.00,124.00,143.00,83.00,33.00,APPROVED
WI: LA CROSSE,07/18/2013 22:26:00,,1866.00,1098.00,368.00,175.00,122.00,144.00,82.00,34.00,APPROVED
WI: LA CROSSE,07/18/2013 23:26:00,,1877.00,1112.00,366.00,175.00,120.00,146.00,82.00,34.00,APPROVED
WI: LA CROSSE,07/19/2013 00:26:00,,1893.00,1112.00,371.00,174.00,119.00,143.00,81.00,34.00,APPROVED
WI: LA CROSSE,07/19/2013 01:27:00,,1936.00,1153.00,374.00,177.00,121.00,148.00,81.00,36.00,APPROVED
WI: LA CROSSE,07/19/2013 02:27:00,,2004.00,1193.00,383.00,178.00,120.00,145.00,81.00,35.00,APPROVED
WI: LA CROSSE,07/19/2013 03:27:00,,2054.00,1229.00,386.00,181.00,124.00,147.00,81.00,36.00,APPROVED
WI: LA CROSSE,07/19/2013 04:27:00,,2092.00,1261.00,386.00,188.00,125.00,149.00,87.00,35.00,APPROVED
WI: LA CROSSE,07/19/2013 05:27:00,,2113.00,1279.00,397.00,190.00,127.00,151.00,83.00,36.00,APPROVED
WI: LA CROSSE,07/19/2013 06:28:00,,2146.00,1305.00,403.00,194.00,124.00,150.00,85.00,36.00,APPROVED
WI: LA CROSSE,07/19/2013 07:28:00,,2183.00,1317.00,408.00,193.00,128.00,155.00,86.00,36.00,APPROVED
WI: LA CROSSE,07/19/2013 08:28:00,,2195.00,1332.00,409.00,198.00,130.00,156.00,86.00,37.00,APPROVED
WI: LA CROSSE,07/19/2013 09:28:00,,2194.00,1334.00,410.00,196.00,131.00,155.00,86.00,36.00,APPROVED
WI: LA CROSSE,07/19/2013 10:28:00,,2177.00,1334.00,410.00,197.00,132.00,157.00,87.00,36.00,APPROVED
WI: LA CROSSE,07/19/2013 11:29:00,,2192.00,1331.00,410.00,196.00,130.00,159.00,87.00,36.00,APPROVED
WI: LA CROSSE,07/19/2013 12:29:00,,2322.00,1470.00,454.00,212.00,137.00,173.00,95.00,38.00,APPROVED
WI: LA CROSSE,07/19/2013 13:29:00,,2338.00,1467.00,454.00,219.00,139.00,173.00,92.00,38.00,APPROVED
WI: LA CROSSE,07/19/2013 14:29:00,,2221.00,1359.00,416.00,200.00,129.00,155.00,91.00,37.00,APPROVED
WI: LA CROSSE,07/19/2013 15:29:00,,2107.00,1287.00,401.00,190.00,128.00,152.00,89.00,37.00,APPROVED
WI: LA CROSSE,07/19/2013 16:30:00,,2027.00,1238.00,398.00,187.00,129.00,148.00,89.00,37.00,APPROVED
WI: LA CROSSE,07/19/2013 17:30:00,,1981.00,1190.00,391.00,186.00,127.00,151.00,91.00,37.00,APPROVED
WI: LA CROSSE,07/19/2013 18:30:00,,1934.00,1163.00,385.00,183.00,124.00,149.00,87.00,36.00,APPROVED
WI: LA CROSSE,07/19/2013 19:30:00,,1947.00,1160.00,382.00,181.00,125.00,149.00,83.00,36.00,APPROVED
WI: LA CROSSE,07/19/2013 20:30:00,,1940.00,1153.00,374.00,176.00,121.00,152.00,77.00,35.00,APPROVED
WI: LA CROSSE,07/19/2013 21:31:00,,1943.00,1158.00,376.00,178.00,118.00,151.00,77.00,35.00,APPROVED
WI: LA CROSSE,07/19/2013 22:31:00,,1943.00,1155.00,378.00,180.00,123.00,151.00,74.00,36.00,APPROVED
WI: LA CROSSE,07/19/2013 23:31:00,,1955.00,1155.00,377.00,173.00,122.00,151.00,72.00,35.00,APPROVED
WI: LA CROSSE,07/20/2013 00:31:00,,1971.00,1168.00,372.00,174.00,121.00,150.00,72.00,35.00,APPROVED
WI: LA CROSSE,07/20/2013 01:31:00,,2014.00,1191.00,378.00,179.00,119.00,150.00,69.00,35.00,APPROVED
WI: LA CROSSE,07/20/2013 02:32:00,,2081.00,1235.00,379.00,179.00,121.00,154.00,71.00,34.00,APPROVED
WI: LA CROSSE,07/20/2013 03:32:00,,2138.00,1270.00,385.00,181.00,119.00,152.00,68.00,35.00,APPROVED
WI: LA CROSSE,07/20/2013 04:32:00,,2171.00,1276.00,387.00,184.00,123.00,156.00,70.00,36.00,APPROVED
WI: LA CROSSE,07/20/2013 05:32:00,,2184.00,1289.00,388.00,182.00,124.00,156.00,65.00,35.00,APPROVED
WI: LA CROSSE,07/20/2013 06:32:00,,2233.00,1322.00,396.00,187.00,126.00,159.00,69.00,36.00,APPROVED
WI: LA CROSSE,07/20/2013 07:33:00,,2262.00,1339.00,400.00,189.00,124.00,160.00,70.00,37.00,APPROVED
WI: LA CROSSE,07/20/2013 08:33:00,,2323.00,1382.00,421.00,195.00,131.00,164.00,72.00,35.00,APPROVED
WI: LA CROSSE,07/20/2013 09:33:00,,2373.00,1425.00,422.00,198.00,130.00,166.00,76.00,36.00,APPROVED
WI: LA CROSSE,07/20/2013 10:33:00,,2409.00,1469.00,438.00,204.00,135.00,170.00,77.00,37.00,APPROVED
WI: LA CROSSE,07/20/2013 11:33:00,,2416.00,1484.00,438.00,209.00,136.00,170.00,80.00,38.00,APPROVED
WI: LA CROSSE,07/20/2013 12:34:00,,2385.00,1458.00,434.00,205.00,132.00,168.00,82.00,37.00,APPROVED
WI: LA CROSSE,07/20/2013 13:34:00,,2346.00,1442.00,430.00,206.00,136.00,169.00,83.00,38.00,APPROVED
WI: LA CROSSE,07/20/2013 14:34:00,,2304.00,1418.00,427.00,206.00,133.00,169.00,82.00,38.00,APPROVED
WI: LA CROSSE,07/20/2013 15:34:00,,2205.00,1342.00,418.00,197.00,128.00,162.00,82.00,37.00,APPROVED
WI: LA CROSSE,07/20/2013 16:34:00,,2119.00,1276.00,408.00,188.00,129.00,160.00,81.00,37.00,APPROVED
WI: LA CROSSE,07/20/2013 17:35:00,,2016.00,1216.00,397.00,185.00,124.00,155.00,82.00,36.00,APPROVED
WI: LA CROSSE,07/20/2013 18:35:00,,1965.00,1187.00,384.00,184.00,123.00,155.00,79.00,36.00,APPROVED
WI: LA CROSSE,07/20/2013 19:35:00,,1976.00,1174.00,382.00,178.00,123.00,154.00,78.00,35.00,APPROVED
WI: LA CROSSE,07/20/2013 20:35:00,,2014.00,1203.00,389.00,181.00,124.00,153.00,77.00,36.00,APPROVED
WI: LA CROSSE,07/20/2013 21:35:00,,1971.00,1170.00,379.00,178.00,120.00,148.00,76.00,36.00,APPROVED
WI: LA CROSSE,07/20/2013 22:35:00,,1929.00,1131.00,374.00,173.00,121.00,152.00,70.00,37.00,APPROVED
WI: LA CROSSE,07/20/2013 23:36:00,,1922.00,1126.00,368.00,172.00,118.00,150.00,68.00,34.00,APPROVED
WI: LA CROSSE,07/21/2013 00:36:00,,1959.00,1144.00,376.00,174.00,118.00,152.00,69.00,36.00,APPROVED
WI: LA CROSSE,07/21/2013 01:36:00,,2044.00,1197.00,385.00,180.00,121.00,156.00,69.00,35.00,APPROVED
WI: LA CROSSE,07/21/2013 02:36:00,,2123.00,1264.00,390.00,183.00,124.00,159.00,71.00,36.00,APPROVED
WI: LA CROSSE,07/21/2013 03:36:00,,2148.00,1290.00,395.00,188.00,125.00,157.00,74.00,36.00,APPROVED
WI: LA CROSSE,07/21/2013 04:37:00,,2179.00,1315.00,405.00,187.00,129.00,161.00,75.00,37.00,APPROVED
WI: LA CROSSE,07/21/2013 05:37:00,,2182.00,1320.00,406.00,191.00,125.00,157.00,77.00,37.00,APPROVED
WI: LA CROSSE,07/21/2013 06:37:00,,2239.00,1358.00,412.00,195.00,126.00,163.00,77.00,36.00,APPROVED
WI: LA CROSSE,07/21/2013 07:37:00,,2346.00,1439.00,434.00,204.00,130.00,173.00,80.00,37.00,APPROVED
WI: LA CROSSE,07/21/2013 08:37:00,,2473.00,1540.00,457.00,219.00,139.00,183.00,85.00,39.00,APPROVED
WI: LA CROSSE,07/21/2013 09:38:00,,2500.00,1570.00,467.00,225.00,141.00,185.00,89.00,39.00,APPROVED
WI: LA CROSSE,07/21/2013 10:38:00,,2490.00,1569.00,467.00,225.00,138.00,180.00,88.00,38.00,APPROVED
WI: LA CROSSE,07/21/2013 11:38:00,,2498.00,1556.00,468.00,226.00,140.00,179.00,89.00,39.00,APPROVED
WI: LA CROSSE,07/21/2013 12:38:00,,2439.00,1513.00,451.00,221.00,138.00,175.00,88.00,40.00,APPROVED
WI: LA CROSSE,07/21/2013 13:38:00,,2344.00,1432.00,429.00,205.00,134.00,164.00,83.00,38.00,APPROVED
WI: LA CROSSE,07/21/2013 14:39:00,,2274.00,1363.00,414.00,196.00,128.00,159.00,83.00,37.00,APPROVED
WI: LA CROSSE,07/21/2013 15:39:00,,2243.00,1356.00,406.00,194.00,128.00,158.00,82.00,37.00,APPROVED
WI: LA CROSSE,07/21/2013 16:39:00,,2247.00,1363.00,411.00,192.00,128.00,157.00,81.00,37.00,APPROVED
WI: LA CROSSE,07/21/2013 17:39:00,,2227.00,1354.00,418.00,197.00,128.00,158.00,83.00,38.00,APPROVED
WI: LA CROSSE,07/21/2013 18:39:00,,2268.00,1386.00,422.00,197.00,129.00,162.00,83.00,39.00,APPROVED
WI: LA CROSSE,07/21/2013 19:40:00,,2418.00,1482.00,443.00,209.00,135.00,168.00,89.00,37.00,APPROVED
WI: LA CROSSE,07/21/2013 20:40:00,,2244.00,1351.00,415.00,196.00,129.00,156.00,82.00,38.00,APPROVED
WI: LA CROSSE,07/21/2013 21:40:00,,2129.00,1280.00,390.00,186.00,122.00,148.00,82.00,37.00,APPROVED
WI: LA CROSSE,07/21/2013 22:40:00,,2092.00,1248.00,385.00,181.00,123.00,148.00,80.00,36.00,APPROVED
WI: LA CROSSE,07/21/2013 23:40:00,,2139.00,1263.00,389.00,183.00,123.00,153.00,76.00,36.00,APPROVED
WI: LA CROSSE,07/22/2013 00:41:00,,2058.00,1224.00,386.00,180.00,121.00,147.00,77.00,36.00,APPROVED